Location: Huberhof
(49.2050°N, 7.4980°E)
Time: 01:21:29
(UTC+00:00)

Timation 1 Rocket - Pass Details

Date: 29 October 2020
Orbit: 896 x 911 km, 70.0° (Epoch: 26 November)

Event Time Altitude Azimuth Distance (km) Brightness Sun altitude
Rises 17:32:40 0° 331° (NNW) 3,549 7.8 -13.5°
Reaches altitude 10° 17:35:15 10° 336° (NNW) 2,606 7.0 -13.9°
Maximum altitude 17:41:09 53° 53° (NE) 1,109 4.5 -14.8°
Enters shadow 17:46:18 14° 128° (SE) 2,339 6.1 -15.7°
